(213065) = 2003 UX234 = 1999 RT127

Discovered at Socorro on 1999-09-09 by LINEAR.

Orbit

Orbit type: Main Belt

Note: WebGL enabled browser required.

epoch2024-03-31.0
epoch JD2460400.5
perihelion date2025-01-03.95479
perihelion JD2460679.45479
argument of perihelion (°)143.21337
ascending node (°)195.62080
inclination (°)3.71784
eccentricity0.2275899
perihelion distance (AU)1.8198656
Tisserand w.r.t. Jupiter3.5
ΔV w.r.t. Earth (km/sec)8.5
semimajor axis (AU)2.3560872
mean anomaly (°)283.97601
mean daily motion (°/day)0.27253160
aphelion distance (AU)2.892
period (years)3.62
P-vector [x]0.93219996
P-vector [y]-0.34560610
P-vector [z]-0.10751586
Q-vector [x]0.36152231
Q-vector [y]0.87475574
Q-vector [z]0.32265155
absolute magnitude17.11
phase slope0.15
uncertainty0
referenceMPEC 2024-C181
observations used601
oppositions17
arc length (days)11116
first opposition used1992
last opposition used2023
residual rms (arc-secs)0.67
perturbers coarse indicatorM-v
perturbers precise indicator003Ek
first observation date used1992-10-20.0
last observation date used2023-03-28.0
computer nameMPCLINUX
JD of orbit computation2456465.530421
perihelion JD uncertainty (days)4.0583E-05
argument of perihelion uncertainty (°)5.4057E-05
ascending node uncertainty (°)5.2445E-05
inclination uncertainty (°)6.5205E-06
eccentricity uncertainty 4.8598E-08
perihelion distance uncertainty (AU)1.1476E-07
Minimum Orbit Intersection Distances (in AU)
for orbit epoch: 2460400.5, reference: E2024-G02
Mercury1.42881
Venus1.09793
Earth0.81267
Mars0.44969
Jupiter2.50216
Saturn6.35975
Uranus15.5531
Neptune27.4704

Observations

622 total observations over interval: 1992 10 20.37803 – 2023 03 28.216503
These data are available for download (format description).

Date (UT) J2000 RA J2000 Dec Magn Location Ref
1992 10 20.37803 02 04 14.69 +10 39 38.9 18.4 V 691 – Steward Observatory, Kitt Peak-Spacewatch MPS 90371
1992 10 20.43288 02 04 11.55 +10 39 12.2   691 – Steward Observatory, Kitt Peak-Spacewatch MPS 90371
1992 10 20.45448 02 04 10.33 +10 39 02.3   691 – Steward Observatory, Kitt Peak-Spacewatch MPS 90371
1999 09 07.27967 21 41 56.40 -08 16 33.1 18.1   704 – Lincoln Laboratory ETS, New Mexico MPS 20844
1999 09 07.29209 21 41 55.95 -08 16 38.1 18.6   704 – Lincoln Laboratory ETS, New Mexico MPS 20844
1999 09 07.30439 21 41 55.57 -08 16 42.9 18.6   704 – Lincoln Laboratory ETS, New Mexico MPS 20844
1999 09 07.31649 21 41 55.20 -08 16 48.7 19.1   704 – Lincoln Laboratory ETS, New Mexico MPS 20844
1999 09 07.32861 21 41 54.75 -08 16 52.2 18.9   704 – Lincoln Laboratory ETS, New Mexico MPS 20844
1999 09 09.26905 21 41 02.71 -08 29 49.3 18.6   704 – Lincoln Laboratory ETS, New Mexico MPS 6325
1999 09 09.28310 21 41 02.21 -08 29 55.0 18.9   704 – Lincoln Laboratory ETS, New Mexico MPS 6325
1999 09 09.29729 21 41 01.91 -08 30 00.6 19.1   704 – Lincoln Laboratory ETS, New Mexico MPS 6325
1999 09 09.31153 21 41 01.49 -08 30 06.1 19.1   704 – Lincoln Laboratory ETS, New Mexico MPS 6325
1999 09 09.32569 21 41 00.99 -08 30 12.4 19.1   704 – Lincoln Laboratory ETS, New Mexico MPS 6325
1999 09 13.23580 21 39 36.15 -08 55 06.1 19.3   704 – Lincoln Laboratory ETS, New Mexico MPS 6325
1999 09 13.24717 21 39 35.93 -08 55 09.8 19.4   704 – Lincoln Laboratory ETS, New Mexico MPS 6325
1999 09 13.25932 21 39 35.62 -08 55 14.3 19.4   704 – Lincoln Laboratory ETS, New Mexico MPS 6326
1999 09 13.27091 21 39 35.43 -08 55 18.4 19.7   704 – Lincoln Laboratory ETS, New Mexico MPS 6326
1999 10 06.12443 21 41 41.73 -10 30 31.8 20.4   704 – Lincoln Laboratory ETS, New Mexico MPS 37489
1999 10 06.13788 21 41 42.10 -10 30 33.0 20.3   704 – Lincoln Laboratory ETS, New Mexico MPS 37489
1999 10 06.15100 21 41 42.43 -10 30 36.0 20.6   704 – Lincoln Laboratory ETS, New Mexico MPS 37489
1999 10 06.16415 21 41 42.79 -10 30 38.4 20.2   704 – Lincoln Laboratory ETS, New Mexico MPS 37489
2002 04 08.27960 14 27 41.96 -12 58 23.5 19.8 R 807 – Cerro Tololo Observatory, La Serena MPS 90371
2002 04 08.37072 14 27 37.59 -12 57 53.1   807 – Cerro Tololo Observatory, La Serena MPS 90371
2002 04 12.26034 14 24 29.13 -12 35 46.9 20.9   644 – Palomar Mountain/NEAT MPS 90371
2002 04 12.32693 14 24 25.65 -12 35 23.6 20.4   644 – Palomar Mountain/NEAT MPS 90371
2002 04 12.39437 14 24 22.11 -12 34 59.9 20.8   644 – Palomar Mountain/NEAT MPS 90371
2002 04 18.29271 14 19 07.67 -11 58 45.6 21.0 V 691 – Steward Observatory, Kitt Peak-Spacewatch MPS 90371
2002 04 18.31445 14 19 06.42 -11 58 37.0 20.6 V 691 – Steward Observatory, Kitt Peak-Spacewatch MPS 90371
2002 04 18.33622 14 19 05.16 -11 58 29.1 21.1 V 691 – Steward Observatory, Kitt Peak-Spacewatch MPS 90371
2003 10 24.36104 04 32 12.07 +18 07 53.4 19.3   704 – Lincoln Laboratory ETS, New Mexico MPS 89874
2003 10 24.37310 04 32 11.65 +18 07 51.3 19.5   704 – Lincoln Laboratory ETS, New Mexico MPS 89874
2003 10 24.38531 04 32 11.21 +18 07 48.9 20.1   704 – Lincoln Laboratory ETS, New Mexico MPS 89874
2003 10 24.39734 04 32 10.77 +18 07 45.8 19.6   704 – Lincoln Laboratory ETS, New Mexico MPS 89874
2003 10 25.38056 04 31 40.09 +18 03 46.2 19.6   704 – Lincoln Laboratory ETS, New Mexico MPS 89874
2003 10 25.39225 04 31 39.76 +18 03 43.4 19.8   704 – Lincoln Laboratory ETS, New Mexico MPS 89874
2003 10 25.40413 04 31 39.31 +18 03 41.7 19.9   704 – Lincoln Laboratory ETS, New Mexico MPS 89874
2003 10 25.42848 04 31 38.57 +18 03 33.3 20.1   704 – Lincoln Laboratory ETS, New Mexico MPS 89874
2003 11 18.34233 04 10 46.97 +16 15 00.3 18.9   644 – Palomar Mountain/NEAT MPS 91114
2003 11 18.37253 04 10 44.91 +16 14 52.5 19.0   644 – Palomar Mountain/NEAT MPS 91114
2003 11 18.40233 04 10 42.89 +16 14 43.4 19.8   644 – Palomar Mountain/NEAT MPS 91114
2003 12 01.26587 03 56 51.36 +15 19 44.3 19.5   704 – Lincoln Laboratory ETS, New Mexico MPS 92798
2003 12 01.27868 03 56 50.65 +15 19 42.7 20.2   704 – Lincoln Laboratory ETS, New Mexico MPS 92798
2003 12 01.29141 03 56 49.74 +15 19 38.9 20.3   704 – Lincoln Laboratory ETS, New Mexico MPS 92798
2003 12 01.30426 03 56 48.90 +15 19 35.6 20.4   704 – Lincoln Laboratory ETS, New Mexico MPS 92798
2003 12 01.31720 03 56 48.14 +15 19 32.6 20.2   704 – Lincoln Laboratory ETS, New Mexico MPS 92798
2003 12 21.18523 03 40 57.84 +14 29 17.4 20.5 V 691 – Steward Observatory, Kitt Peak-Spacewatch MPS 94736
2003 12 21.20572 03 40 57.17 +14 29 14.4 20.2   704 – Lincoln Laboratory ETS, New Mexico MPS 94736
2003 12 21.21328 03 40 56.91 +14 29 15.5 20.4 V 691 – Steward Observatory, Kitt Peak-Spacewatch MPS 94736
2003 12 21.21891 03 40 56.72 +14 29 14.1 20.2   704 – Lincoln Laboratory ETS, New Mexico MPS 94736
2003 12 21.23169 03 40 56.25 +14 29 12.8 20.7   704 – Lincoln Laboratory ETS, New Mexico MPS 94736
2003 12 21.23987 03 40 56.00 +14 29 13.7 20.5 V 691 – Steward Observatory, Kitt Peak-Spacewatch MPS 94736
2003 12 21.24511 03 40 55.83 +14 29 12.8 20.5   704 – Lincoln Laboratory ETS, New Mexico MPS 94736
2003 12 21.25804 03 40 55.42 +14 29 11.6 20.7   704 – Lincoln Laboratory ETS, New Mexico MPS 94736
2005 03 17.26918 10 32 59.03 +05 59 18.1 20.7 R G96 – Mt. Lemmon Survey MPS 128866
2005 03 17.27519 10 32 58.69 +05 59 20.3 20.5 R G96 – Mt. Lemmon Survey MPS 128866
2005 03 17.28116 10 32 58.38 +05 59 22.6 21.0 R G96 – Mt. Lemmon Survey MPS 128866
2005 03 17.28713 10 32 58.09 +05 59 24.8 20.3 R G96 – Mt. Lemmon Survey MPS 128866
2008 01 11.28800 07 21 23.90 +16 09 48.7 20.4 V G96 – Mt. Lemmon Survey MPS 233287
2008 01 11.29398 07 21 23.50 +16 09 49.5 20.5 V G96 – Mt. Lemmon Survey MPS 233287
2008 01 11.30010 07 21 23.11 +16 09 50.4 20.4 V G96 – Mt. Lemmon Survey MPS 233287
2008 01 11.30621 07 21 22.68 +16 09 51.3 20.6 V G96 – Mt. Lemmon Survey MPS 233287
2009 02 19.47532 13 13 26.34 -08 49 16.6 21.6 V 691 – Steward Observatory, Kitt Peak-Spacewatch MPS 276430
2009 02 19.49341 13 13 26.16 -08 49 13.8 21.1 V 691 – Steward Observatory, Kitt Peak-Spacewatch MPS 276430
2009 02 19.51152 13 13 25.89 -08 49 12.6 21.7 V 691 – Steward Observatory, Kitt Peak-Spacewatch MPS 276430
2009 04 28.19957 12 24 58.24 -02 29 12.9 21.2 V G96 – Mt. Lemmon Survey MPS 285624
2009 04 28.20505 12 24 58.03 -02 29 11.1 21.5 V G96 – Mt. Lemmon Survey MPS 285624
2009 04 28.21052 12 24 57.81 -02 29 09.4 21.2 V G96 – Mt. Lemmon Survey MPS 285624
2009 04 28.21577 12 24 57.60 -02 29 08.1 21.2 V G96 – Mt. Lemmon Survey MPS 285624
2010 06 21.154438 23 55 40.598 +03 11 52.12   C51 – WISE MPS 903525
2010 06 21.419045 23 56 07.464 +03 14 41.96   C51 – WISE MPS 903525
2010 06 21.551348 23 56 20.976 +03 16 09.01   C51 – WISE MPS 903525
2010 06 21.815956 23 56 47.794 +03 19 00.41   C51 – WISE MPS 903525
2010 06 21.882171 23 56 54.463 +03 19 42.71   C51 – WISE MPS 903525
2010 06 22.080564 23 57 14.441 +03 21 52.81   C51 – WISE MPS 903525
2010 08 06.34312 00 57 21.27 +09 16 37.9 19.8 V 291 – LPL/Spacewatch II MPS 343582
2010 08 06.35727 00 57 21.95 +09 16 41.3 19.9 V 291 – LPL/Spacewatch II MPS 343582
2010 08 06.37104 00 57 22.62 +09 16 44.5 20.0 V 291 – LPL/Spacewatch II MPS 343582
2010 08 06.621191 00 57 34.890 +09 17 43.95 19.66 z F51 – Pan-STARRS 1, Haleakala MPS 365228
2010 08 06.626514 00 57 35.150 +09 17 45.24 19.71 z F51 – Pan-STARRS 1, Haleakala MPS 365228
2010 08 08.38722 00 59 00.85 +09 24 08.6 19.5   704 – Lincoln Laboratory ETS, New Mexico MPS 344721
2010 08 08.39890 00 59 01.37 +09 24 11.2 19.9   704 – Lincoln Laboratory ETS, New Mexico MPS 344721
2010 08 08.41060 00 59 01.88 +09 24 13.4 19.4   704 – Lincoln Laboratory ETS, New Mexico MPS 344721
2010 08 08.42247 00 59 02.43 +09 24 15.4 19.7   704 – Lincoln Laboratory ETS, New Mexico MPS 344721
2010 09 06.35779 01 07 58.11 +09 18 48.9 19.4   704 – Lincoln Laboratory ETS, New Mexico MPS 347816
2010 09 06.36944 01 07 57.98 +09 18 45.4 20.1   704 – Lincoln Laboratory ETS, New Mexico MPS 347816
2010 09 06.38117 01 07 57.82 +09 18 42.0 20.0   704 – Lincoln Laboratory ETS, New Mexico MPS 347816
2010 09 06.39284 01 07 57.60 +09 18 39.5 20.5   704 – Lincoln Laboratory ETS, New Mexico MPS 347816
